Weather History for Fallon NAS, NV

Change the Weather History Date:

Tuesday, November 6, 2012

  Actual Average Record
Temperature  
Mean Temperature 50 °F -  
Max Temperature 72 °F 59 °F 77 °F (1999)
Min Temperature 28 °F 30 °F 6 °F (1935)
Degree Days  
Heating Degree Days 15    
Moisture  
Dew Point 28 °F    
Average Humidity 48    
Maximum Humidity 72    
Minimum Humidity 21    
Precipitation  
Precipitation 0.00 in - - ()
Sea Level Pressure  
Sea Level Pressure 30.12 in    
Wind  
Wind Speed 3 mph (East)    
Max Wind Speed 7 mph    
Max Gust Speed -    
Visibility 10 miles    
Events      
Averages and records for this station are not official NWS values.
T = Trace of Precipitation, MM = Missing Value Source: NWS Daily Summary

Daily Weather History Graph

Daily Weather History Graph

Search for Another Location

Airport:

Trip Planner

Search our weather history database for the weather conditions in past years. The results will help you decide how hot, cold, wet, or windy it might be!

Date:

Astronomy

Nov. 06, 2012 Rise Set
Actual Time 6:29 AM PST 4:47 PM PST
Civil Twilight 6:00 AM PST 5:15 PM PST
Nautical Twilight 5:28 AM PST 5:47 PM PST
Astronomical Twilight 4:57 AM PST 6:18 PM PST
Moon 11:31 PM PST (11/6) 12:24 PM PST (11/6)
Length of Visible Light 11h 14m
Length of Day
10h 18m
Waning Gibbous, 52% of the Moon is Illuminated
Nov 6
Waning Gibbous
Nov 6
Last Quarter
Nov 13
New
Nov 20
First Quarter
Nov 28
Full

Hourly Weather History & Observations

Time (PST) Temp. Windchill Dew Point Humidity Pressure Visibility Wind Dir Wind Speed Gust Speed Precip Events Conditions
12:56 AM 39.0 °F 35.7 °F 25.0 °F 57% 30.19 in 10.0 mi SSE 4.6 mph - N/A   Clear
1:56 AM 39.0 °F 34.0 °F 24.1 °F 55% 30.18 in 10.0 mi SSE 6.9 mph - N/A   Clear
2:56 AM 37.9 °F - 25.0 °F 60% 30.17 in 10.0 mi Calm Calm - N/A   Clear
3:56 AM 33.1 °F - 25.0 °F 72% 30.17 in 10.0 mi Calm Calm - N/A   Clear
4:56 AM 30.9 °F 27.5 °F 21.9 °F 69% 30.18 in 10.0 mi NE 3.5 mph - N/A   Clear
5:56 AM 28.9 °F 21.9 °F 21.0 °F 72% 30.18 in 10.0 mi ENE 6.9 mph - N/A   Clear
6:13 AM 33.8 °F - 24.8 °F 70% 30.30 in 10.0 mi Calm Calm - N/A   Scattered Clouds
6:56 AM 33.1 °F - 24.1 °F 70% 30.19 in 10.0 mi Calm Calm - N/A   Scattered Clouds
7:56 AM 43.0 °F - 28.9 °F 58% 30.20 in 10.0 mi Calm Calm - N/A   Scattered Clouds
8:56 AM 50.0 °F - 30.0 °F 46% 30.19 in 10.0 mi Calm Calm - N/A   Scattered Clouds
9:56 AM 55.9 °F - 30.0 °F 37% 30.17 in 10.0 mi Calm Calm - N/A   Scattered Clouds
10:56 AM 62.1 °F - 30.0 °F 30% 30.15 in 10.0 mi Calm Calm - N/A   Scattered Clouds
11:56 AM 64.9 °F - 30.0 °F 27% 30.12 in 10.0 mi Calm Calm - N/A   Partly Cloudy
12:56 PM 68.0 °F - 30.0 °F 24% 30.09 in 10.0 mi Calm Calm - N/A   Partly Cloudy
1:56 PM 71.1 °F - 28.9 °F 21% 30.07 in 10.0 mi NE 5.8 mph - N/A   Partly Cloudy
2:56 PM 71.1 °F - 28.9 °F 21% 30.06 in 10.0 mi Calm Calm - N/A   Partly Cloudy
3:56 PM 72.0 °F - 30.9 °F 22% 30.04 in 10.0 mi NE 4.6 mph - N/A   Partly Cloudy
4:56 PM 62.1 °F - 32.0 °F 32% 30.04 in 10.0 mi NE 6.9 mph - N/A   Clear
5:56 PM 55.9 °F - 30.0 °F 37% 30.05 in 10.0 mi NE 6.9 mph - N/A   Clear
6:56 PM 52.0 °F - 30.0 °F 43% 30.05 in 10.0 mi ENE 4.6 mph - N/A   Clear
7:56 PM 48.0 °F - 28.0 °F 46% 30.06 in 10.0 mi WSW 4.6 mph - N/A   Clear
8:56 PM 44.1 °F - 25.0 °F 47% 30.06 in 10.0 mi Calm Calm - N/A   Clear
9:56 PM 43.0 °F 41.3 °F 27.0 °F 53% 30.06 in 10.0 mi South 3.5 mph - N/A   Clear
10:56 PM 42.1 °F 38.4 °F 28.9 °F 60% 30.06 in 10.0 mi South 5.8 mph - N/A   Clear
11:56 PM 39.9 °F 36.7 °F 30.0 °F 68% 30.05 in 10.0 mi South 4.6 mph - N/A   Clear